Location: Unspecified
(0.0000°N, 0.0000°E)
Time: 19:28:15
(UTC+00:00)

CZ-3C DEB - Pass Details

Date: 12 March 2026
Orbit: 1497 x 35067 km, 20.3° (Epoch: 12 June)

Event Time Altitude Azimuth Distance (km) Brightness Sun altitude
Rises 15:10:33 0° 304° (NW) 4,706 ? 44.7°
Reaches altitude 10° 15:13:08 10° 315° (NW) 3,978 ? 44.1°
Maximum altitude 15:22:03 36° 24° (NNE) 3,928 ? 41.8°
Drops below altitude 10° 16:06:30 10° 90° (E) 16,547 ? 30.8°
Sets 01:03:31 0° 104° (ESE) 14,933 ? -76.2°
